When you browse on this site, cookies collect data to enhance your experience and personalize the content and advertising you see.
Visit our Privacy Policy to learn more. By continuing to use the site, you agree to this use of cookies and data.
  • In Schweiz
  • Länderverzeichnis
  • Für 7 Tage
  • Wassertemperatur
  • Wetterkarte
  • Widgets
  • user-avatar
    Anmelden

    Stündliche Wetter Kramatorsk

    Heute, 21 Februar, Freitag

    Zeit Temperatur Niederschläge Wind Luftdruck Luftfeuchtigkeit
    00:00 0°C° 0 mm 3 m/S 758 mmHg 98%
    01:00 0°C° 0 mm 3 m/S 758 mmHg 98%
    02:00 0°C° 0 mm 3 m/S 758 mmHg 98%
    03:00 0°C° 0 mm 3 m/S 758 mmHg 98%
    04:00 0°C° 0 mm 3 m/S 758 mmHg 98%
    05:00 0°C° 0 mm 3 m/S 758 mmHg 97%
    06:00 -2°C° 0 mm 4 m/S 758 mmHg 96%
    07:00 -2°C° 0 mm 4 m/S 758 mmHg 95%
    08:00 -2°C° 0 mm 4 m/S 759 mmHg 93%
    09:00 -1°C° 0 mm 3 m/S 759 mmHg 90%
    16:00 -1°C° 0.1 mm 4 m/S 758 mmHg 96%
    17:00 -1°C° 0.1 mm 4 m/S 758 mmHg 97%
    18:00 0°C° 0.1 mm 3 m/S 758 mmHg 97%
    19:00 0°C° 0.1 mm 3 m/S 758 mmHg 97%
    20:00 -1°C° 0.1 mm 4 m/S 758 mmHg 97%
    21:00 -1°C° 0.1 mm 4 m/S 759 mmHg 97%
    22:00 -1°C° 0.1 mm 4 m/S 759 mmHg 97%
    23:00 0°C° 0.1 mm 3 m/S 759 mmHg 97%

    Morgen, 22 Februar, Samstag

    Zeit Temperatur Niederschläge Wind Luftdruck Luftfeuchtigkeit
    00:00 0°C° 0.1 mm 3 m/S 759 mmHg 97%
    01:00 0°C° 0 mm 3 m/S 759 mmHg 97%
    02:00 0°C° 0 mm 3 m/S 759 mmHg 98%
    03:00 0°C° 0 mm 3 m/S 759 mmHg 98%
    04:00 0°C° 0.1 mm 3 m/S 759 mmHg 97%
    05:00 0°C° 0.1 mm 3 m/S 759 mmHg 97%
    06:00 -1°C° 0.1 mm 3 m/S 759 mmHg 97%
    07:00 -1°C° 0.1 mm 3 m/S 760 mmHg 96%
    08:00 -1°C° 0.1 mm 3 m/S 760 mmHg 95%
    09:00 -1°C° 0.1 mm 3 m/S 760 mmHg 94%
    10:00 0°C° 0 mm 3 m/S 760 mmHg 93%
    11:00 -1°C° 0 mm 4 m/S 761 mmHg 92%
    12:00 0°C° 0 mm 4 m/S 761 mmHg 91%
    13:00 +1°C° 0 mm 3 m/S 761 mmHg 91%
    14:00 +1°C° 0 mm 3 m/S 761 mmHg 91%
    15:00 +1°C° 0 mm 3 m/S 761 mmHg 91%
    16:00 +1°C° 0 mm 3 m/S 761 mmHg 93%
    17:00 +1°C° 0 mm 2 m/S 761 mmHg 95%
    18:00 +1°C° 0 mm 2 m/S 761 mmHg 97%
    19:00 +1°C° 0 mm 2 m/S 761 mmHg 97%
    20:00 +1°C° 0 mm 2 m/S 760 mmHg 98%
    21:00 +2°C° 0 mm 1 m/S 760 mmHg 98%
    22:00 +2°C° 0 mm 1 m/S 760 mmHg 98%
    23:00 +2°C° 0 mm 1 m/S 760 mmHg 98%

    übermorgen, 23 Februar, Sonntag

    Zeit Temperatur Niederschläge Wind Luftdruck Luftfeuchtigkeit
    00:00 +2°C° 0 mm 1 m/S 760 mmHg 98%
    01:00 +2°C° 0.1 mm 1 m/S 759 mmHg 98%
    02:00 +1°C° 0.1 mm 0 m/S 759 mmHg 98%
    03:00 +1°C° 0.1 mm 0 m/S 759 mmHg 98%
    04:00 +2°C° 0 mm 1 m/S 758 mmHg 98%
    05:00 -1°C° 0 mm 2 m/S 758 mmHg 97%
    06:00 -1°C° 0 mm 2 m/S 757 mmHg 97%
    07:00 -1°C° 0 mm 3 m/S 757 mmHg 94%
    08:00 -1°C° 0 mm 4 m/S 757 mmHg 91%
    09:00 -1°C° 0 mm 5 m/S 756 mmHg 88%
    10:00 -1°C° 0 mm 5 m/S 756 mmHg 84%
    11:00 -1°C° 0 mm 6 m/S 755 mmHg 80%
    12:00 +1°C° 0 mm 6 m/S 755 mmHg 77%
    13:00 0°C° 0.1 mm 7 m/S 754 mmHg 79%
    14:00 0°C° 0.1 mm 7 m/S 753 mmHg 82%
    15:00 0°C° 0.1 mm 8 m/S 752 mmHg 84%
    16:00 0°C° 0.4 mm 8 m/S 751 mmHg 88%
    17:00 0°C° 0.4 mm 9 m/S 751 mmHg 92%
    18:00 -1°C° 0.4 mm 9 m/S 750 mmHg 96%
    19:00 0°C° 0.5 mm 9 m/S 750 mmHg 95%
    20:00 0°C° 0.5 mm 9 m/S 749 mmHg 94%
    21:00 0°C° 0.5 mm 9 m/S 749 mmHg 93%
    22:00 0°C° 0.2 mm 7 m/S 749 mmHg 92%
    23:00 +1°C° 0.2 mm 6 m/S 749 mmHg 91%

    24 Februar, Montag

    Zeit Temperatur Niederschläge Wind Luftdruck Luftfeuchtigkeit
    00:00 0°C° 0.2 mm 5 m/S 749 mmHg 89%
    01:00 0°C° 0 mm 5 m/S 749 mmHg 90%
    02:00 -1°C° 0 mm 4 m/S 749 mmHg 91%
    03:00 -1°C° 0 mm 4 m/S 749 mmHg 92%
    04:00 -1°C° 0 mm 4 m/S 748 mmHg 93%
    05:00 -1°C° 0 mm 4 m/S 747 mmHg 95%
    06:00 -1°C° 0 mm 5 m/S 746 mmHg 96%
    07:00 0°C° 0.1 mm 5 m/S 745 mmHg 95%
    08:00 -1°C° 0.1 mm 6 m/S 744 mmHg 95%
    09:00 -1°C° 0.1 mm 6 m/S 743 mmHg 94%
    10:00 0°C° 1.3 mm 7 m/S 742 mmHg 95%
    11:00 0°C° 1.3 mm 9 m/S 740 mmHg 95%
    12:00 +1°C° 1.3 mm 10 m/S 739 mmHg 96%
    13:00 +1°C° 1.6 mm 10 m/S 737 mmHg 96%
    14:00 +1°C° 1.6 mm 10 m/S 735 mmHg 95%
    15:00 +1°C° 1.6 mm 10 m/S 734 mmHg 95%
    16:00 +1°C° 0.8 mm 9 m/S 733 mmHg 94%
    17:00 +2°C° 0.8 mm 7 m/S 732 mmHg 92%
    18:00 +3°C° 0.8 mm 6 m/S 731 mmHg 91%
    19:00 +2°C° 0.3 mm 5 m/S 732 mmHg 91%
    20:00 +1°C° 0.3 mm 4 m/S 732 mmHg 92%
    21:00 +2°C° 0.3 mm 2 m/S 733 mmHg 92%
    22:00 0°C° 0.8 mm 5 m/S 734 mmHg 94%
    23:00 -2°C° 0.8 mm 7 m/S 735 mmHg 95%

    25 Februar, Dienstag

    Zeit Temperatur Niederschläge Wind Luftdruck Luftfeuchtigkeit
    00:00 -3°C° 0.8 mm 9 m/S 736 mmHg 97%
    01:00 -3°C° 0.9 mm 10 m/S 737 mmHg 94%
    02:00 -3°C° 0.9 mm 11 m/S 739 mmHg 90%
    03:00 -3°C° 0.9 mm 12 m/S 740 mmHg 87%
    04:00 -3°C° 0 mm 11 m/S 742 mmHg 86%
    05:00 -3°C° 0 mm 10 m/S 743 mmHg 85%
    06:00 -3°C° 0 mm 10 m/S 745 mmHg 85%
    07:00 -4°C° 0 mm 9 m/S 746 mmHg 83%
    08:00 -4°C° 0 mm 9 m/S 748 mmHg 82%
    09:00 -4°C° 0 mm 8 m/S 749 mmHg 80%
    10:00 -4°C° 0 mm 8 m/S 750 mmHg 78%
    11:00 -2°C° 0 mm 8 m/S 751 mmHg 76%
    12:00 -2°C° 0 mm 8 m/S 751 mmHg 73%
    13:00 -1°C° 0 mm 7 m/S 752 mmHg 71%
    14:00 -1°C° 0 mm 7 m/S 752 mmHg 69%
    15:00 +1°C° 0 mm 6 m/S 752 mmHg 66%
    16:00 0°C° 0 mm 5 m/S 752 mmHg 69%
    17:00 -1°C° 0 mm 4 m/S 752 mmHg 71%
    18:00 0°C° 0 mm 3 m/S 752 mmHg 73%
    19:00 -1°C° 0 mm 3 m/S 753 mmHg 75%
    20:00 -1°C° 0 mm 3 m/S 753 mmHg 76%
    21:00 -1°C° 0 mm 3 m/S 753 mmHg 77%
    22:00 -2°C° 0 mm 4 m/S 753 mmHg 76%
    23:00 -1°C° 0 mm 4 m/S 752 mmHg 75%

    26 Februar, Mittwoch

    Zeit Temperatur Niederschläge Wind Luftdruck Luftfeuchtigkeit
    00:00 -1°C° 0 mm 5 m/S 752 mmHg 74%
    01:00 -1°C° 0 mm 5 m/S 752 mmHg 73%
    02:00 -1°C° 0 mm 5 m/S 751 mmHg 73%
    03:00 -2°C° 0 mm 6 m/S 751 mmHg 72%
    04:00 -2°C° 0 mm 6 m/S 750 mmHg 74%
    05:00 -1°C° 0 mm 6 m/S 750 mmHg 76%
    06:00 -1°C° 0 mm 6 m/S 749 mmHg 77%
    07:00 -1°C° 0 mm 7 m/S 749 mmHg 75%
    08:00 -1°C° 0 mm 7 m/S 749 mmHg 73%
    09:00 0°C° 0 mm 8 m/S 749 mmHg 71%
    10:00 +1°C° 0 mm 8 m/S 748 mmHg 66%
    11:00 +2°C° 0 mm 9 m/S 748 mmHg 62%
    12:00 +3°C° 0 mm 9 m/S 748 mmHg 58%
    13:00 +4°C° 0 mm 8 m/S 747 mmHg 59%
    14:00 +4°C° 0 mm 7 m/S 747 mmHg 61%
    15:00 +4°C° 0 mm 6 m/S 747 mmHg 63%
    16:00 +4°C° 0 mm 6 m/S 747 mmHg 65%
    17:00 +3°C° 0 mm 5 m/S 746 mmHg 67%
    18:00 +3°C° 0 mm 5 m/S 746 mmHg 69%
    19:00 +3°C° 0 mm 5 m/S 746 mmHg 72%
    20:00 +2°C° 0 mm 6 m/S 746 mmHg 75%
    21:00 +2°C° 0 mm 6 m/S 746 mmHg 77%
    22:00 +2°C° 0 mm 6 m/S 746 mmHg 81%
    23:00 +2°C° 0 mm 5 m/S 746 mmHg 84%
    Mehr zeigen